Regional Weather Roundup
Issued by NWS

Home | Current Version | Previous Version | Text Only | Print | Product List | Glossary On
Versions: 1 2 3 4 5 6 7 8 9 10 11 12 13 14 15 16 17 18 19 20 21 22 23 24 25 26 27 28 29 30 31 32 33 34 35 36 37 38 39 40 41 42 43 44 45 46 47 48 49 50
000
ASUS44 KFWD 231201
RWRTX
NORTH TEXAS HOURLY WEATHER ROUNDUP
NATIONAL WEATHER SERVICE FORT WORTH TX
700 AM CDT MON APR 23 2018

NOTE: "FAIR" INDICATES FEW OR NO CLOUDS BELOW 12,000 FEET WITH NO
SIGNIFICANT WEATHER AND/OR OBSTRUCTIONS TO VISIBILITY.

TXZ118-119-231300-
DALLAS/FORT WORTH METROPLEX

CITY           SKY/WX    TMP DP  RH WIND       PRES   REMARKS
DFW AIRPORT    MOCLDY    52  49  89 NW15      30.07R
6HR MIN TEMP:  51; 6HR MAX TEMP:  58;

DALLAS LOVE    CLOUDY    53  48  83 N15       30.07R
6HR MIN TEMP:  52; 6HR MAX TEMP:  58;

FTW MEACHAM    FAIR      52  48  86 NW12      30.08R
6HR MIN TEMP:  49; 6HR MAX TEMP:  56;

DAL-EXECUTIVE  FAIR      52  47  83 NW12      30.06R
6HR MIN TEMP:  50; 6HR MAX TEMP:  57;

FTW-ALLIANCE   CLOUDY    50  48  93 W6        30.09R
6HR MIN TEMP:  49; 6HR MAX TEMP:  55;

FTW-NAS-JRB    FAIR      52  47  83 NW12      30.09R
6HR MIN TEMP:  52; 6HR MAX TEMP:  56;

FTW-SPINKS     CLEAR     50  46  87 NW6       30.10R
ARLINGTON      FAIR      51  48  89 NW10      30.08R
6HR MIN TEMP:  50; 6HR MAX TEMP:  56;

GRAND PRAIRIE  CLEAR     52  46  82 CALM      30.10R
ADDISON        MOCLDY    52  48  87 NW9       30.08R
MESQUITE       CLOUDY    50  46  87 NW9       30.07R
LANCASTER      FAIR      50  47  88 NW6       30.07R
6HR MIN TEMP:  48; 6HR MAX TEMP:  54;

$$

TXZ091>094-102>105-117-120-121-131>134-231300-
NORTH CENTRAL TEXAS

CITY           SKY/WX    TMP DP  RH WIND       PRES   REMARKS
SHRMAN/DENISON CLOUDY    53  50  88 NW5       30.06R
6HR MIN TEMP:  49; 6HR MAX TEMP:  53;

GAINESVILLE    FAIR      49  47  91 NW7       30.09R
6HR MIN TEMP:  48; 6HR MAX TEMP:  51;

BOWIE          FAIR      47  46  95 W8        30.10R
6HR MIN TEMP:  47; 6HR MAX TEMP:  51;

BRIDGEPORT     CLOUDY    51  48  90 NW6       30.13R
6HR MIN TEMP:  48; 6HR MAX TEMP:  54;

DECATUR        FAIR      49  47  93 CALM      30.09R
6HR MIN TEMP:  47; 6HR MAX TEMP:  53;

DENTON         FAIR      48  47  96 W7        30.08R
6HR MIN TEMP:  48; 6HR MAX TEMP:  52;

MCKINNEY       FAIR      52  49  89 NW9       30.06R
6HR MIN TEMP:  51; 6HR MAX TEMP:  54;

BONHAM         CLOUDY    52  49  89 NW7       30.04R
6HR MIN TEMP:  49; 6HR MAX TEMP:  53;

ROCKWALL       CLOUDY    53  49  87 MISG      30.06R
6HR MIN TEMP:  51; 6HR MAX TEMP:  56;

TERRELL        MOCLDY    53  48  83 NW9       30.06R
6HR MIN TEMP:  50; 6HR MAX TEMP:  56;

WAXAHACHIE     FAIR      50  49  96 NW9       30.08R
6HR MIN TEMP:  49; 6HR MAX TEMP:  53;

CLEBURNE       FAIR      46  46 100 NW8       30.10R
GRANBURY       FAIR      49  46  86 W7        30.11R
6HR MIN TEMP:  47; 6HR MAX TEMP:  51;

$$

TXZ083>090-098>101-113>116-127>130-139>142-154-155-231300-
WESTERN NORTH TEXAS

CITY           SKY/WX    TMP DP  RH WIND       PRES   REMARKS
WICHITA FALLS  FAIR      48  44  86 NW9       30.11R
6HR MIN TEMP:  47; 6HR MAX TEMP:  51;

WF-KICKAPOO    FAIR      50  45  85 N10       30.14R
6HR MIN TEMP:  49; 6HR MAX TEMP:  54;

VERNON         FAIR      46  44  92 W10       30.14R
6HR MIN TEMP:  46; 6HR MAX TEMP:  62;

ABILENE        FAIR      47  40  76 N3        30.14R
6HR MIN TEMP:  45; 6HR MAX TEMP:  55;

ABILENE-DYESS  FAIR      45  34  65 CALM      30.14R
6HR MIN TEMP:  42; 6HR MAX TEMP:  50;

BRECKENRIDGE   FAIR      46  41  83 CALM      30.13R
6HR MIN TEMP:  44; 6HR MAX TEMP:  51;

EASTLAND       FAIR      44  40  86 NW7       30.14R
6HR MIN TEMP:  37; 6HR MAX TEMP:  45;

RANGER         FAIR      46  43  89 NW7       30.13R
MINERAL WELLS  FAIR      46  44  93 W5        30.09R
6HR MIN TEMP:  45; 6HR MAX TEMP:  50;

STEPHENVILLE   FAIR      48  42  79 NW5       30.13R
6HR MIN TEMP:  47; 6HR MAX TEMP:  56;

COMANCHE       FAIR      49  42  76 NW6       30.12R
6HR MIN TEMP:  49; 6HR MAX TEMP:  55;

COLEMAN        FAIR      45  38  78 W6        30.14R
6HR MIN TEMP:  45; 6HR MAX TEMP:  52;

BRADY          FAIR      45  37  76 W3        30.14R
$$

TXZ143>147-156>162-174-175-231300-
CENTRAL TEXAS

CITY           SKY/WX    TMP DP  RH WIND       PRES   REMARKS
WACO           FAIR      51  44  77 NW7       30.08R
6HR MIN TEMP:  47; 6HR MAX TEMP:  51;

WACO-TSTC      CLEAR     48  45  87 N6        30.08
WACO-MCGREGOR  FAIR      48  44  86 NW7       30.08R
6HR MIN TEMP:  48; 6HR MAX TEMP:  53;

HILLSBORO      FAIR      46  45  97 CALM      30.07R
6HR MIN TEMP:  45; 6HR MAX TEMP:  53;

CORSICANA      FAIR      49  46  90 SW8       30.07R
6HR MIN TEMP:  49; 6HR MAX TEMP:  54;

MEXIA          FAIR      49  45  87 NW7       30.06R
6HR MIN TEMP:  48; 6HR MAX TEMP:  55;

HEARNE         FAIR      47  47 100 W5        30.09R
6HR MIN TEMP:  45; 6HR MAX TEMP:  49;

CAMERON        FAIR      49  45  86 W5        30.09R
6HR MIN TEMP:  48; 6HR MAX TEMP:  55;

TEMPLE         FAIR      46  44  93 CALM      30.10R
6HR MIN TEMP:  44; 6HR MAX TEMP:  50;

KILLEEN        CLEAR     55  41  58 W8        30.10R
GATESVILLE     FAIR      46  41  81 SW3       30.12R
HAMILTON       FAIR      46  42  85 W8        30.11R
6HR MIN TEMP:  46; 6HR MAX TEMP:  52;

LAMPASAS       FAIR      51  42  71 W5        30.10R
6HR MIN TEMP:  46; 6HR MAX TEMP:  53;

$$

TXZ095>097-106>112-122>126-135>138-148>153-164>167-231300-
EAST TEXAS

CITY           SKY/WX    TMP DP  RH WIND       PRES   REMARKS
PARIS          CLOUDY    54  51  90 NW12      30.02R
6HR MIN TEMP:  53; 6HR MAX TEMP:  55;

SULPHUR SPRNGS CLOUDY    54  51  90 NW8       30.05R
6HR MIN TEMP:  52; 6HR MAX TEMP:  58;

MOUNT PLEASANT FAIR      52  49  90 W6        30.03R
6HR MIN TEMP:  52; 6HR MAX TEMP:  56;

GILMER         FAIR      50  49  93 W5        30.01R
6HR MIN TEMP:  50; 6HR MAX TEMP:  55;

MINEOLA        MOCLDY    54  50  87 NW8       30.03R
TYLER          FAIR      50  48  93 NW7       30.02R
6HR MIN TEMP:  50; 6HR MAX TEMP:  54;

LONGVIEW       FAIR      51  51 100 W7        29.99R
6HR MIN TEMP:  50; 6HR MAX TEMP:  55;

MARSHALL       FAIR      47  45  91 CALM      30.01R
6HR MIN TEMP:  47; 6HR MAX TEMP:  53;

ATHENS         FAIR      52  46  82 N6        30.02R
PALESTINE      FAIR      47  46  95 SW5       30.05R
JACKSONVILLE   FAIR      52  49  90 NW6       30.03S
HENDERSON      FAIR      47  47  98 W3        30.02R
6HR MIN TEMP:  47; 6HR MAX TEMP:  51;

CENTER         FAIR      47  46  96 MISG      30.01R
6HR MIN TEMP:  46; 6HR MAX TEMP:  49;

NACOGDOCHES      N/A     44  43  96 CALM      30.02R
6HR MIN TEMP:  44; 6HR MAX TEMP:  49;

LUFKIN         FAIR      48  46  93 CALM      30.02R
6HR MIN TEMP:  46; 6HR MAX TEMP:  51;

$$

SUPPLEMENTAL OBSERVATIONS (NWS FORT WORTH AREA)

CITY           SKY/WX    TMP DP  RH WIND       PRES   REMARKS
$$

SUPPLEMENTAL OBSERVATIONS (NWS NORMAN AREA)

CITY           SKY/WX    TMP DP  RH WIND       PRES   REMARKS
GOODLETT         N/A     44  39  83 W10       30.16R WCI  39
ODELL            N/A     43  42  95 SW5       30.16R
CROWELL          N/A     48  43  81 NW8       30.17R
KNOX CITY        N/A     46  38  75 NW6       30.17R
SEYMOUR          N/A     46  42  89 NW7       30.15R
$$

SUPPLEMENTAL OBSERVATIONS (NWS SAN ANGELO AREA)

CITY           SKY/WX    TMP DP  RH WIND       PRES   REMARKS
WEINERT          N/A     45  39  79 NW3



USA.gov is the U.S. government's official web portal to all federal, state and local government web resources and services.